This is the latest recevied weather packets stored in our database for station/object KJ4EBE. If no packets are shown the sender has not sent any weather packets the latest 10 day(s).
| Time | Temp. | Humidity | Pressure | Rain* | Wind** | Luminosity | Snow |
|---|---|---|---|---|---|---|---|
| 1777913739 | 24.44° C | 67% | 1013.1 hPa | 0 mm | - | 382 W/m² | - |
| 1777913436 | 25.56° C | 64% | 1012.8 hPa | 0 mm | - | 897 W/m² | - |
| 1777913132 | 24.44° C | 68% | 1013 hPa | 0 mm | - | 969 W/m² | - |
| 1777912829 | 25° C | 68% | 1013.2 hPa | 0 mm | - | 901 W/m² | - |
| 1777912525 | 23.33° C | 69% | 1013.1 hPa | 0 mm | - | 802 W/m² | - |
| 1777912222 | 24.44° C | 65% | 1013.1 hPa | 0 mm | - | 721 W/m² | - |
| 1777911918 | 23.89° C | 68% | 1013 hPa | 0 mm | - | 319 W/m² | - |
| 1777911614 | 23.89° C | 68% | 1013.1 hPa | 0 mm | - | 551 W/m² | - |
| 1777911310 | 24.44° C | 67% | 1013.2 hPa | 0 mm | - | 781 W/m² | - |
| 1777911008 | 22.78° C | 70% | 1012.9 hPa | 0 mm | - | 796 W/m² | - |
| 1777910706 | 22.78° C | 71% | 1013.1 hPa | 0 mm | - | 462 W/m² | - |
| 1777910401 | 23.89° C | 69% | 1013.4 hPa | 0 mm | - | 506 W/m² | - |
| 1777910098 | 22.78° C | 70% | 1013.4 hPa | 0 mm | - | 780 W/m² | - |
| 1777909796 | 22.78° C | 70% | 1013.4 hPa | 0 mm | - | 713 W/m² | - |
| 1777909493 | 22.78° C | 70% | 1013.1 hPa | 0 mm | - | 697 W/m² | - |
| 1777909190 | 22.78° C | 70% | 1013.3 hPa | 0 mm | - | 635 W/m² | - |
| 1777908888 | 22.78° C | 71% | 1013.5 hPa | 0 mm | - | 652 W/m² | - |
| 1777908586 | 22.78° C | 69% | 1013.7 hPa | 0 mm | - | 592 W/m² | - |
| 1777908282 | 22.22° C | 72% | 1013.5 hPa | 0 mm | - | 596 W/m² | - |
| 1777907978 | 22.22° C | 71% | 1013.5 hPa | 0 mm | - | 632 W/m² | - |
| 1777907674 | 22.78° C | 70% | 1013.6 hPa | 0 mm | - | 621 W/m² | - |
| 1777907369 | 21.67° C | 73% | 1013.6 hPa | 0 mm | - | 578 W/m² | - |
| 1777907066 | 21.67° C | 72% | 1013.7 hPa | 0 mm | - | 187 W/m² | - |
| 1777906764 | 21.67° C | 73% | 1013.7 hPa | 0 mm | - | 528 W/m² | - |
| 1777906460 | 21.67° C | 74% | 1013.6 hPa | 0 mm | - | 601 W/m² | - |
* Rain latest hour (hover to see other rain measurements)
** Current wind speed in m/s (hover to see current wind gust speed)